This is the latest recevied weather packets stored in our database for station/object HF3P-11. If no packets are shown the sender has not sent any weather packets the latest 1 day(s).
| Time | Temp. | Humidity | Pressure | Rain* | Wind** | Luminosity | Snow |
|---|---|---|---|---|---|---|---|
| 1778082899 | 18.33° C | 74% | 998.2 hPa | 0 mm | - | - | - |
| 1778082600 | 18.33° C | 73% | 998.3 hPa | 0 mm | - | - | - |
| 1778081108 | 18.89° C | 74% | 998 hPa | 0 mm | - | - | - |
| 1778080510 | 18.33° C | 73% | 997.9 hPa | 0 mm | - | - | - |
| 1778079308 | 18.89° C | 71% | 998 hPa | 0 mm | - | - | - |
| 1778079000 | 19.44° C | 71% | 998.1 hPa | 0 mm | - | - | - |
| 1778078400 | 19.44° C | 69% | 997.9 hPa | 0 mm | - | - | - |
| 1778076899 | 20.56° C | 68% | 997.8 hPa | 0 mm | - | - | - |
| 1778075700 | 18.89° C | 70% | 997.9 hPa | 0 mm | - | - | - |
| 1778073908 | 18.33° C | 69% | 997.7 hPa | 0 mm | - | - | - |
| 1778073308 | 18.33° C | 69% | 997.4 hPa | 0 mm | - | - | - |
| 1778072707 | 18.33° C | 70% | 997.4 hPa | 0 mm | - | - | - |
| 1778069699 | 17.22° C | 72% | 997.7 hPa | 0 mm | - | - | - |
| 1778068800 | 17.78° C | 72% | 997.6 hPa | 0 mm | - | - | - |
| 1778065809 | 17.22° C | 73% | 997.8 hPa | 0 mm | - | - | - |
| 1778064900 | 17.78° C | 73% | 997.6 hPa | 0 mm | - | - | - |
| 1778064008 | 17.22° C | 75% | 997.7 hPa | 0 mm | - | - | - |
| 1778063100 | 16.67° C | 75% | 997.9 hPa | 0 mm | - | - | - |
| 1778062500 | 16.67° C | 78% | 997.7 hPa | 0 mm | - | - | - |
| 1778061900 | 16.11° C | 77% | 997.7 hPa | 0 mm | - | - | - |
| 1778061009 | 16.11° C | 76% | 997.8 hPa | 0 mm | - | - | - |
| 1778060408 | 16.11° C | 77% | 997.7 hPa | 0 mm | - | - | - |
| 1778060100 | 15.56° C | 76% | 997.9 hPa | 0 mm | - | - | - |
| 1778059209 | 16.11° C | 78% | 997.7 hPa | 0 mm | - | - | - |
| 1778058900 | 15.56° C | 79% | 997.7 hPa | 0 mm | - | - | - |
* Rain latest hour (hover to see other rain measurements)
** Current wind speed in m/s (hover to see current wind gust speed)